Location: Buckenweiler
(49.0667°N, 10.2500°E)
Time: 09:31:32
(UTC+00:00)

Cosmos 1140 Rocket - Visible Passes

Search period start: 10 April 2026 00:00
Search period end: 20 April 2026 00:00
Orbit: 739 x 762 km, 74.1° (Epoch: 10 April)

Date Brightness Start Highest point End Pass type
(mag) Time Alt. Az. Time Alt. Az. Time Alt. Az.
10 Apr 5.4 21:06:03 10° N 21:09:35 18° NE 21:10:22 18° ENE visible
10 Apr 4.5 22:46:50 10° NNW 22:50:16 43° NNW 22:50:16 43° NNW visible
11 Apr 5.8 20:24:49 10° NNE 20:26:43 12° NE 20:28:37 10° ENE visible
11 Apr 4.2 22:04:37 10° NNW 22:08:44 46° NNE 22:08:44 46° NNE visible
11 Apr 5.6 23:46:57 10° NW 23:48:38 17° WNW 23:48:38 17° WNW visible
12 Apr 4.6 21:22:33 10° N 21:27:11 32° NE 21:27:13 32° NE visible
12 Apr 4.9 23:04:09 10° NW 23:07:07 30° WNW 23:07:07 30° WNW visible
13 Apr 5.1 20:40:42 10° N 20:44:32 20° NE 20:45:43 19° ENE visible
13 Apr 4.1 22:21:40 10° NNW 22:25:37 52° NW 22:25:37 52° NW visible
14 Apr 5.6 19:59:15 10° NNE 20:01:43 13° NE 20:04:10 10° ENE visible
14 Apr 3.7 21:39:24 10° NNW 21:44:08 60° NE 21:44:08 60° NE visible
14 Apr 5.5 23:22:00 10° NW 23:24:02 18° WNW 23:24:02 18° WNW visible
15 Apr 4.3 20:57:18 10° N 21:02:04 36° ENE 21:02:40 35° ENE visible
15 Apr 4.8 22:39:04 10° NW 22:42:34 32° WNW 22:42:34 32° WNW visible
16 Apr 5.0 20:15:22 10° N 20:19:27 23° NE 20:21:14 19° E visible
16 Apr 3.7 21:56:31 10° NNW 22:01:07 61° WNW 22:01:07 61° WNW visible
17 Apr 5.5 19:33:46 10° N 19:36:41 15° NE 19:39:35 10° ENE visible
17 Apr 3.3 21:14:12 10° NNW 21:19:21 72° ENE 21:19:42 69° E visible
17 Apr 5.5 22:57:06 10° NW 22:59:36 17° W 22:59:36 17° W visible
18 Apr 4.1 20:32:02 10° NNW 20:36:56 42° ENE 20:38:18 35° E visible
18 Apr 4.7 22:14:00 10° NW 22:18:12 31° W 22:18:12 31° W visible
19 Apr 4.8 19:50:04 10° N 19:54:22 26° NE 19:56:55 18° E visible
19 Apr 3.7 21:31:22 10° NNW 21:36:23 55° WSW 21:36:49 54° SW visible
